STARLINK-1153, 45080

Orbit data source: Space-Track

STARLINK-1153, 45080 is a payload satellite owned by SpaceX/Seattle (US) in LEO that was launched on Wed, 29 Jan 2020 UTC via an FALCON 9 launch vehicle from the Air Force Eastern Test Range (AFETR). Payload-class satellites include a variety of spacecraft equipped with specific instruments for various scientific and technological missions. These include communications satellites like Starlink; space stations such as the ISS; scientific satellites like the Hubble; Earth observation satellites from companies like Planet Labs, Umbra, and HawkEye 360; GPS; miniature CubeSats for education and research; and military/defense satellites.

Loading next visibility...
Identifier
45080, 2020-006AN
Orbit
LEO
Country
Flag of USUS
Related business
Manufacturer
SpaceX/Seattle
Mission
Operational Commercial Communications
Bus & Motor
STARLINK, Unknown motor
Mass
260 kg wet, ~248 kg dry
Launch date (UTC)
2020-01-29 (6 years ago)
Launch vehicle
FALCON 9
Launch site
Air Force Eastern Test Range (AFETR)
Object type
Payload
Rocket body
Debris
Shape & HBR
Box + 1 Pan, 4.4 m
Radar Cross Section
13.562 m², Large (>1 m²)

Expand to show TLE details & history
Last TLE update: 1 day ago

TLE from 1 day ago
0 STARLINK-1153
1 45080U 20006AN  25241.77439326  .00002049  00000-0  15635-3 0  9998
2 45080  53.0564  48.1622 0001313  84.7738 275.3401 15.06411661307812
Epoch: 2025-08-29T18:35Z
TLE epoch observation values (Epoch: 2025-08-29T18:35:07.577Z)
Latitude
-0.00002°
Longitude
151.1624°
Altitude
547.971 km
Speed
7.589 km/s
True Right ascension
03h 12m 38s
True Declination
0° 00' 00"
Sunlit
Object was in daylight at epoch
Visualization orbit readout
Latitude
Unknown
Longitude
Unknown
Altitude
Unknown
Speed
Unknown
Apparent Right ascension
Unknown
Apparent Declination
Unknown
Sunlit
N/A
Visualization observer readout
Local Sidereal Time
16:43:31
Azimuth
Unknown
Elevation
Unknown
Doppler factor
Unknown
Orbital elements
Apogee altitude
548.356 km
Perigee altitude
546.537 km
Semi-major axis
6,925.583 km
Eccentricity
0.00013
Inclination
53.0564°
RAAN
48.1622°
Arg. of periapsis
84.7738°
True anomaly
275.32512°
Mean anomaly
275.3401°
Eccentric anomaly
275.33261°
Mean motion
3.76581 °/min
Orbital period
95.6 mins
BSTAR
0.00015635
Loading maneuver chart data...
Computing Atmospheric mass density...

Documentation

Showing up to 5 results
|